Regional Weather Roundup
Issued by NWS Green Bay, WI

Home | Current Version | Previous Version | Graphics & Text | Print | Product List | Glossary Off
Versions: 1 2 3 4 5 6 7 8 9 10 11 12 13 14 15 16 17 18 19 20 21 22 23 24 25 26 27 28 29 30 31 32 33 34 35 36 37 38 39 40 41 42 43 44 45 46 47 48 49 50

000
ASUS43 KGRB 271710
RWRGRB

NORTH-CENTRAL AND NORTHEAST WISCONSIN REGIONAL WEATHER ROUNDUP
NATIONAL WEATHER SERVICE GREEN BAY WI
1100 AM CST TUE JAN 27 2015

WIZ005-009-010>012-018-019-271800-
NORTH CENTRAL WISCONSIN

CITY           SKY/WX    TMP DP  RH WIND       PRES   REMARKS
IRONWOOD       CLOUDY    25  21  86 S3        30.13R
MANITOWISH WTR CLOUDY    21  20  96 S5        30.14R
ARBOR VITAE    CLOUDY    23  21  92 CALM      30.14S
EAGLE RIVER    CLOUDY    22  17  79 CALM      30.14R
LAND O LAKES   CLOUDY    23  18  81 CALM      30.14S
RHINELANDER    CLOUDY    21  19  92 S3        30.15R
PHILLIPS       CLOUDY    22  19  89 SE3       30.14S
ANTIGO         LGT SNOW  21  19  90 S3        30.16S
TOMAHAWK       CLOUDY    23  20  89 CALM      30.16S
MERRILL        CLOUDY    24  21  91 S3        30.17R FOG
$$

WIZ013-073-271800-
NORTHEAST WISCONSIN

CITY           SKY/WX    TMP DP  RH WIND       PRES   REMARKS
IRON MOUNTAIN  CLOUDY    19  15  84 E5        30.18R
MARINETTE      CLOUDY    25  19  80 CALM      30.22R
OCONTO         CLOUDY    26  16  65 E3        30.22R
$$

WIZ017-030-035>037-045-271800-
CENTRAL WISCONSIN

CITY           SKY/WX    TMP DP  RH WIND       PRES   REMARKS
MEDFORD        CLOUDY    23  21  91 E3        30.15R FOG
WAUSAU         CLOUDY    23  20  88 SE5       30.16R FOG
MOSINEE        CLOUDY    21  21 100 E3        30.18R
MARSHFIELD     CLOUDY    24  21  88 E5        30.17R FOG
WISC RAPIDS    CLOUDY    24  20  84 E6        30.19F FOG
STEVENS POINT  CLOUDY    22  19  91 SE5       30.18S FOG
WAUPACA        CLOUDY    27  20  75 E3        30.21R
SHAWANO        CLOUDY    28  19  70 CALM      30.21S
CLINTONVILLE   CLOUDY    27  18  69 E5        30.21R
$$

WIZ038-039-048-051-271800-
FOX VALLEY

CITY           SKY/WX    TMP DP  RH WIND       PRES   REMARKS
NWS GREEN BAY  CLOUDY    26  17  68 NE7       30.22R
APPLETON       CLOUDY    25  16  68 NE8       30.20R
OSHKOSH        CLOUDY    26  16  65 NE6       30.20R
FOND DU LAC    CLOUDY    26  16  65 E8        30.19R
$$

WIZ022-050-052-271800-
EAST CENTRAL WISCONSIN

CITY           SKY/WX    TMP DP  RH WIND       PRES   REMARKS
STURGEON BAY   CLOUDY    23  18  80 N6        30.23R
MANITOWOC      FLURRIES  28  19  69 NE7       30.21R
SHEBOYGAN      CLOUDY    27  17  66 NE8       30.20R
$$

LMZ563-521-522-541>543-271800-
LAKESHORE

STATION/POSITION TIME  TEMP    WIND        PRES    VSBY  WAVE
                       AIR SEA DIR/SP/G                  HT/PER
                 (UTC) (F)     (DEG/KT/KT) (MB)    (MI)  (FT/S)
SHEBOYGAN LKSHOR 1700   26      50/  7/  8 1023.8R
KEWAUNEE LKSHORE 1700   26      50/  5/  8 1022.0R
TWO RIVERS CG    1600   26                 1022.2      6   1
NORTHPORT PIER   1700   24      80/  8/ 10 1023.4S
SISTER BAY LKSHO 1600   24      10/ 10/ 11   N/A
STURGEON BAY CG  1600   25     340/  3     1022.9      6
CHAMBERS ISLAND  1700   30     310/  3/  5 1023.7R
MENOMINEE LKSHOR 1700   21      30/  6     1024.0S
$$


USA.gov is the U.S. government's official web portal to all federal, state and local government web resources and services.